Weather History for KMTJ - January, 2011

Change the Weather History Date:

Friday, January 14, 2011

  Actual Average Record
Temperature  
Mean Temperature 27 °F 26 °F  
Max Temperature 35 °F 38 °F 48 °F (2000)
Min Temperature 17 °F 14 °F -9 °F (2013)
Degree Days  
Heating Degree Days 38 39  
Month to date heating degree days 556  
Since 1 July heating degree days 3164  
Cooling Degree Days 0 0  
Month to date cooling degree days 0  
Year to date cooling degree days 0  
Moisture  
Dew Point 21 °F    
Average Humidity 87    
Maximum Humidity 100    
Minimum Humidity 72    
Precipitation  
Precipitation 0.03 in 0.02 in 0.07 in (2007)
Month to date precipitation 0.31  
Year to date precipitation 0.31  
Sea Level Pressure  
Sea Level Pressure 30.40 in    
Wind  
Wind Speed 5 mph (SE)    
Max Wind Speed 12 mph    
Max Gust Speed -    
Visibility 5 miles    
Events Snow    
T = Trace of Precipitation, MM = Missing Value Source: NWS Daily Summary

Daily Weather History Graph

Daily Weather History Graph

Search for Another Location

Airport or City:

Trip Planner

Search our weather history database for the weather conditions in past years. The results will help you decide how hot, cold, wet, or windy it might be!

Date:

Astronomy

Jan. 14, 2011 Rise Set
Actual Time 7:28 AM MST 5:13 PM MST
Civil Twilight 6:58 AM MST 5:42 PM MST
Nautical Twilight 6:26 AM MST 6:15 PM MST
Astronomical Twilight 5:54 AM MST 6:47 PM MST
Moon 12:32 PM MST (1/14) 2:31 AM MST (1/14)
Length of Visible Light 10h 43m
Length of Day
9h 45m
Waxing Gibbous, 72% of the Moon is Illuminated
Jan 14
Waxing Gibbous
Jan 19
Full
Jan 26
Last Quarter
Feb 2
New
Feb 11
First Quarter

Hourly Weather History & Observations

Time (MST) Temp. Windchill Dew Point Humidity Pressure Visibility Wind Dir Wind Speed Gust Speed Precip Events Conditions
12:53 AM 23.0 °F - 17.1 °F 78% 30.37 in 9.0 mi Calm Calm - N/A   Overcast
1:49 AM 23.0 °F 11.7 °F 17.6 °F 80% 30.33 in 3.0 mi SSE 11.5 mph - 0.00 in Snow Light Snow
1:53 AM 23.0 °F 11.7 °F 19.0 °F 85% 30.37 in 3.0 mi SSE 11.5 mph - 0.00 in Snow Light Snow
2:06 AM 23.0 °F 11.7 °F 19.4 °F 86% 30.33 in 2.5 mi SE 11.5 mph - 0.00 in Snow Light Snow
2:19 AM 21.2 °F 9.5 °F 19.4 °F 93% 30.32 in 1.8 mi SE 11.5 mph - 0.00 in Snow Light Snow
2:31 AM 23.0 °F 13.1 °F 19.4 °F 86% 30.32 in 1.5 mi SE 9.2 mph - 0.00 in Snow Light Snow
2:41 AM 23.0 °F 13.9 °F 21.2 °F 93% 30.32 in 1.5 mi SE 8.1 mph - 0.00 in Snow Light Snow
2:48 AM 23.0 °F 14.7 °F 21.2 °F 93% 30.32 in 1.5 mi SE 6.9 mph - 0.00 in Snow Light Snow
2:53 AM 23.0 °F 15.8 °F 21.0 °F 92% 30.36 in 1.2 mi SE 5.8 mph - 0.00 in Snow Light Snow
3:07 AM 24.8 °F 19.1 °F 21.2 °F 86% 30.32 in 1.0 mi ESE 4.6 mph - 0.00 in Snow Light Snow
3:53 AM 25.0 °F - 23.0 °F 92% 30.36 in 1.0 mi Calm Calm - 0.02 in Snow Light Snow
3:59 AM 24.8 °F - 24.8 °F 100% 30.33 in 1.8 mi Calm Calm - 0.00 in Snow Light Snow
4:07 AM 24.8 °F 17.9 °F 23.0 °F 93% 30.33 in 2.5 mi WNW 5.8 mph - 0.00 in Snow Light Snow
4:26 AM 21.2 °F 12.6 °F 21.2 °F 100% 30.33 in 2.0 mi NW 6.9 mph - 0.00 in Snow Light Snow
4:53 AM 21.0 °F 12.4 °F 19.9 °F 96% 30.38 in 3.0 mi NW 6.9 mph - 0.00 in   Overcast
5:03 AM 21.2 °F 14.9 °F 19.4 °F 93% 30.32 in 4.0 mi NW 4.6 mph - N/A   Overcast
5:34 AM 21.2 °F - 19.4 °F 93% 30.33 in 2.0 mi Calm Calm - 0.01 in Snow Light Snow
5:50 AM 21.2 °F - 19.4 °F 93% 30.33 in 2.0 mi Calm Calm - 0.01 in Snow Light Snow
5:53 AM 21.0 °F - 19.0 °F 92% 30.40 in 2.5 mi Calm Calm - 0.01 in Snow Light Snow
6:07 AM 21.2 °F 16.4 °F 19.4 °F 93% 30.33 in 3.0 mi SSE 3.5 mph - 0.00 in   Overcast
6:16 AM 21.2 °F 14.9 °F 19.4 °F 93% 30.33 in 4.0 mi South 4.6 mph - 0.00 in   Overcast
6:48 AM 21.2 °F 13.6 °F 19.4 °F 93% 30.34 in 5.0 mi SSE 5.8 mph - 0.00 in   Overcast
6:53 AM 21.9 °F 17.2 °F 19.9 °F 92% 30.43 in 5.0 mi SSE 3.5 mph - 0.00 in   Overcast
7:53 AM 23.0 °F - 21.0 °F 92% 30.46 in 4.0 mi Calm Calm - N/A   Overcast
8:53 AM 25.0 °F 20.7 °F 21.9 °F 88% 30.48 in 4.0 mi SSE 3.5 mph - N/A   Overcast
9:53 AM 28.0 °F - 24.1 °F 85% 30.49 in 5.0 mi Calm Calm - N/A   Overcast
10:28 AM 30.2 °F - 24.8 °F 80% 30.43 in 5.0 mi Calm Calm - N/A   Haze
10:53 AM 32.0 °F - 25.0 °F 75% 30.48 in 8.0 mi Calm Calm - N/A   Mostly Cloudy
11:53 AM 35.1 °F 32.2 °F 27.0 °F 72% 30.45 in 10.0 mi East 3.5 mph - N/A   Overcast
12:53 PM 34.0 °F - 27.0 °F 75% 30.41 in 9.0 mi Calm Calm - N/A   Clear
1:53 PM 35.1 °F 28.6 °F 27.0 °F 72% 30.40 in 8.0 mi North 8.1 mph - N/A   Clear
2:53 PM 34.0 °F 28.8 °F 26.1 °F 73% 30.42 in 9.0 mi North 5.8 mph - N/A   Clear
3:53 PM 33.1 °F - 26.1 °F 75% 30.42 in 10.0 mi Calm Calm - N/A   Clear
4:53 PM 33.1 °F - 26.1 °F 75% 30.45 in 9.0 mi Calm Calm - N/A   Clear
5:53 PM 26.1 °F - 23.0 °F 88% 30.50 in 7.0 mi Calm Calm - N/A   Clear
6:53 PM 19.9 °F 11.1 °F 18.0 °F 92% 30.53 in 5.0 mi SE 6.9 mph - N/A   Clear
7:53 PM 21.0 °F 11.4 °F 18.0 °F 88% 30.55 in 6.0 mi SE 8.1 mph - N/A   Clear
8:53 PM 19.0 °F 11.1 °F 17.1 °F 92% 30.54 in 7.0 mi SE 5.8 mph - N/A   Clear
9:53 PM 21.9 °F 13.4 °F 18.0 °F 85% 30.51 in 10.0 mi SSE 6.9 mph - N/A   Clear
10:53 PM 19.9 °F - 17.1 °F 89% 30.50 in 10.0 mi Calm Calm - N/A   Clear
11:53 PM 17.1 °F 8.7 °F 14.0 °F 88% 30.51 in 8.0 mi SSE 5.8 mph - N/A   Clear